GFSSGP_850_temp_159.txt.gz
Temp
20 20 20 20 19 18 20 22 22 21 20 19 20 20 18 17 18 17 17 18 18 17 17 16 17 17 17 17 18 18 18 18 18 18 18 18 18 18 18 19 18 18 18 18 18 19 19 18 18
20 20 21 20 18 19 20 23 21 20 19 20 20 18 17 17 16 17 16 17 17 18 18 17 17 17 17 17 17 17 17 18 18 18 18 18 19 18 18 18 18 17 19 18 19 19 18 18 18
21 21 21 17 18 20 21 22 20 20 21 21 19 19 18 16 16 17 17 17 17 17 17 18 17 17 17 17 17 17 17 18 18 18 18 18 19 18 18 18 18 19 19 19 19 19 19 18 18
21 21 20 19 21 23 22 21 21 21 21 21 19 18 17 17 17 17 17 17 17 17 17 17 18 18 17 17 17 17 18 18 18 18 18 18 18 18 18 19 19 19 19 19 19 19 18 18 18
22 20 18 20 20 21 24 22 22 21 20 20 19 17 17 17 18 17 17 16 17 17 17 17 18 18 17 17 17 17 17 17 18 18 18 18 18 19 19 19 19 19 20 20 19 19 19 18 18
19 18 19 19 21 23 24 22 22 20 19 18 18 17 16 17 18 17 16 16 16 16 16 17 17 17 17 17 17 17 17 17 17 18 18 18 18 19 19 19 19 19 19 19 19 20 19 19 18
16 17 18 18 20 22 23 22 21 20 20 19 18 16 16 16 17 16 16 16 16 16 16 16 16 17 17 17 17 17 18 17 17 18 18 18 18 19 19 19 19 18 18 19 19 19 19 19 18
16 16 18 18 20 20 21 22 21 21 20 19 20 16 16 17 17 16 16 16 15 16 16 16 16 17 17 17 17 18 18 18 16 18 17 18 18 19 19 19 18 18 19 19 19 19 19 19 19
17 17 17 18 19 19 19 22 21 21 19 20 20 18 19 17 17 17 16 15 15 15 15 15 16 16 17 17 17 18 18 18 18 18 18 19 19 19 19 19 18 19 19 19 19 19 19 19 19
17 17 17 17 18 18 19 20 22 21 20 18 18 18 17 17 17 17 17 16 15 15 15 15 16 16 16 17 18 18 18 18 18 18 19 19 19 19 19 19 19 19 20 20 20 20 19 19 18
19 18 18 18 17 17 18 23 23 21 19 19 17 17 17 17 17 18 17 17 16 15 15 16 16 16 17 17 18 18 18 17 17 17 18 18 19 19 19 19 20 20 20 20 20 20 19 19 18
19 18 19 17 18 17 19 19 22 21 21 21 21 20 18 18 18 18 17 17 17 16 16 16 16 16 17 18 18 18 18 18 17 18 19 19 19 20 20 20 20 20 20 20 20 19 19 19 20
18 18 18 18 18 18 18 20 21 23 22 19 18 18 18 18 18 18 18 17 17 17 17 17 17 17 17 18 18 18 18 18 18 19 19 19 20 20 20 20 20 20 20 20 21 20 20 20 19
19 18 18 18 18 18 20 22 22 22 20 18 18 18 19 19 19 19 18 18 18 18 18 18 17 18 18 18 18 19 18 18 18 19 19 20 20 20 20 20 20 20 20 20 21 20 21 22 20
19 18 19 19 18 19 18 21 21 21 20 18 17 18 19 19 20 19 19 20 19 19 19 18 19 19 18 18 18 18 18 18 18 19 20 20 19 19 20 20 20 20 20 20 21 21 21 20 20
20 19 18 19 19 19 19 20 20 20 20 19 18 18 18 20 21 20 19 19 20 19 20 19 18 18 18 18 19 19 19 19 19 19 20 19 19 20 20 20 21 20 20 21 21 21 21 21 19
18 19 19 18 20 19 18 20 20 20 21 19 19 18 19 19 19 20 19 19 20 20 20 19 19 19 19 19 19 19 19 19 19 19 19 19 20 20 20 20 20 21 20 21 21 21 22 21 21
19 18 19 20 19 19 18 19 19 20 20 20 20 19 19 19 20 21 20 20 20 20 20 19 19 19 19 19 19 19 19 19 19 19 19 19 20 20 20 20 21 20 21 21 21 21 21 21 21
21 20 21 20 20 20 18 19 18 18 19 19 20 20 19 20 21 21 20 20 20 20 20 20 20 19 19 19 19 19 19 19 19 19 19 19 20 20 20 20 20 20 21 20 21 21 21 21 21
21 21 21 21 21 20 18 18 18 17 18 20 20 20 19 20 20 20 20 20 20 20 20 20 20 20 20 20 19 19 19 19 19 19 19 19 19 20 20 20 20 20 20 21 21 21 22 21 21
20 20 20 22 21 21 20 19 18 18 18 20 20 21 21 21 20 20 21 20 20 20 20 20 20 20 20 19 19 19 19 19 19 19 19 19 20 20 20 20 20 20 20 20 20 21 20 21 21
19 22 23 22 20 19 20 19 18 17 17 17 19 19 20 21 20 20 21 21 20 20 20 20 20 20 20 19 19 19 19 19 19 19 19 19 19 19 19 20 20 20 20 20 20 20 20 20 20
22 24 23 22 19 20 19 18 19 16 17 18 18 20 20 20 21 21 21 21 21 21 20 20 20 19 19 19 19 19 19 19 19 19 19 19 19 19 19 20 20 20 20 20 20 20 20 20 20
24 21 18 15 16 18 19 19 18 16 17 19 19 19 21 21 20 21 21 22 21 20 20 20 20 20 19 19 20 20 19 19 19 19 19 19 19 19 19 20 20 20 19 19 19 20 20 20 20
20 19 16 18 18 18 18 19 18 19 19 19 19 19 20 21 21 20 20 20 21 21 20 20 20 20 19 19 19 19 19 19 19 20 20 19 19 20 20 20 20 19 19 19 19 19 20 20 19
22 19 17 20 17 19 18 19 19 18 18 19 19 20 19 20 21 20 20 20 21 20 21 21 20 21 20 19 19 19 19 19 19 19 20 20 19 19 20 20 19 19 19 19 19 19 19 19 19
23 21 20 17 16 17 17 19 18 18 19 19 19 20 19 20 21 21 20 20 21 20 21 21 20 20 20 19 19 19 19 19 19 19 19 19 19 20 19 19 19 19 19 19 19 19 19 19 19
24 21 21 16 21 21 18 18 17 20 19 17 18 19 19 19 19 21 21 20 20 20 21 21 21 21 21 20 19 19 19 19 19 19 19 19 19 19 19 20 19 19 19 19 19 19 19 19 19
19 19 16 15 15 17 17 17 17 18 18 18 18 19 20 19 19 19 20 21 20 20 21 21 21 21 21 20 19 19 19 19 19 19 19 19 19 19 19 19 19 19 19 19 19 19 19 19 18
18 18 15 16 18 14 15 16 18 17 17 17 18 19 20 19 19 19 19 20 20 20 20 19 20 21 20 20 19 19 19 18 19 19 19 19 19 19 19 19 19 19 19 19 19 19 19 19 19

GFSSGP_850_temp_162.txt.gz
Temp
20 20 20 20 19 18 20 21 22 21 20 19 19 20 18 16 18 17 16 17 18 18 18 17 17 18 17 17 17 18 18 18 17 18 18 18 18 18 18 18 17 18 18 17 17 18 17 18 18
21 20 20 20 18 19 20 22 21 20 18 19 19 18 17 17 16 16 16 17 17 18 18 18 17 17 17 17 17 17 17 17 17 17 18 18 18 18 18 18 18 18 17 17 17 17 18 18 17
21 20 20 17 18 20 20 21 20 20 19 20 19 18 17 16 16 17 17 18 17 17 18 17 17 17 17 17 17 17 17 17 17 18 18 18 18 17 18 18 18 17 17 18 18 18 18 17 17
20 20 20 19 20 21 21 20 21 20 20 19 18 17 17 16 17 17 17 17 17 17 17 18 17 17 17 17 17 16 17 17 17 18 18 17 17 18 19 19 18 18 19 19 18 18 17 17 17
21 21 18 20 20 21 22 21 21 20 20 19 19 16 16 16 17 17 17 17 17 17 17 17 17 17 17 16 16 17 17 18 18 18 18 17 18 18 19 18 18 19 19 19 19 18 17 18 18
20 19 18 19 21 23 21 21 21 19 19 18 17 16 16 17 17 17 16 16 16 16 17 17 17 17 17 17 17 17 17 17 17 18 17 18 18 18 18 18 18 18 18 18 18 18 18 18 18
17 17 18 19 20 22 22 21 21 20 19 18 18 15 16 16 17 16 16 15 16 16 16 16 17 17 17 17 17 17 17 17 17 17 18 18 18 18 18 18 18 18 18 18 18 18 19 18 18
18 17 19 18 19 19 20 21 21 20 19 19 19 16 15 16 16 16 15 15 15 15 16 16 16 17 17 17 17 17 17 17 17 18 18 18 18 18 18 18 18 18 18 18 18 18 18 18 18
18 17 18 18 19 19 19 20 21 20 19 19 18 19 18 17 16 16 16 15 15 15 15 16 16 16 16 17 17 17 18 17 18 19 19 18 18 18 18 18 18 18 19 19 18 18 19 19 19
18 17 18 17 17 19 19 19 21 20 19 17 18 18 18 17 16 17 16 16 15 15 15 15 16 16 17 17 18 18 18 18 18 18 19 19 19 19 18 18 19 19 19 19 19 19 19 20 19
18 18 18 17 17 17 18 20 22 20 18 18 18 18 17 17 17 17 17 16 15 15 15 15 16 16 17 17 18 18 18 18 18 18 18 19 19 19 19 19 19 19 19 20 19 19 20 20 21
18 18 19 18 17 17 19 19 22 21 21 21 20 20 18 17 17 17 17 17 16 16 16 16 16 16 17 18 18 18 17 17 18 18 18 19 19 19 19 19 19 19 19 20 20 20 21 21 22
18 17 18 17 19 19 18 20 20 21 21 20 19 19 18 18 17 17 17 17 17 16 16 16 16 17 17 18 18 18 18 18 18 18 18 19 19 19 19 19 20 20 20 20 20 21 21 21 22
18 18 18 18 18 18 18 20 20 21 21 20 19 18 18 18 18 17 17 18 17 17 17 17 16 17 17 18 18 18 18 18 19 19 19 19 20 20 20 20 20 20 20 21 21 21 21 21 22
19 18 19 18 19 18 18 20 20 19 19 19 18 18 18 18 18 19 18 18 18 18 17 17 17 17 18 18 18 18 18 19 19 19 19 19 20 20 20 20 20 20 20 20 21 21 21 21 21
19 18 18 18 18 19 19 20 19 19 19 18 18 18 19 18 18 18 19 19 18 18 18 18 18 18 18 18 18 18 18 19 19 19 19 19 20 20 20 20 20 20 20 20 21 21 21 21 21
17 18 18 19 19 18 19 20 20 19 20 19 18 19 19 19 19 19 19 20 19 19 19 19 19 19 19 18 18 18 19 19 19 19 19 19 20 20 19 19 20 20 20 20 21 21 21 21 21
18 18 19 19 19 18 17 18 18 19 18 19 18 19 19 19 20 20 19 20 19 19 19 19 18 19 19 19 18 18 19 19 19 19 19 19 19 19 19 19 19 20 20 20 21 21 21 21 21
20 19 21 20 20 19 18 18 18 18 19 19 19 18 19 20 20 20 20 19 20 19 19 19 18 18 19 19 19 19 19 19 19 19 19 19 19 19 19 20 19 20 20 20 21 21 21 20 20
21 20 20 20 19 19 18 18 18 17 18 19 19 19 19 19 20 20 20 20 20 20 19 19 19 18 18 19 19 19 19 19 19 19 19 19 19 19 19 19 19 20 20 20 20 21 21 20 20
20 19 19 22 19 19 18 18 18 18 18 19 20 20 20 21 21 21 20 21 21 20 20 20 19 19 19 19 19 19 19 19 19 19 19 19 19 19 19 19 19 20 20 20 20 20 20 20 20
20 20 21 20 19 19 19 18 18 17 17 17 19 19 20 20 20 21 21 20 21 21 20 20 20 19 19 19 19 19 19 19 19 19 19 19 19 19 19 19 20 20 19 20 20 20 20 20 20
22 22 21 20 18 19 18 18 18 16 17 17 17 19 20 20 21 21 21 21 21 21 21 20 20 19 19 19 19 19 19 19 19 19 19 19 19 19 19 19 19 19 19 19 20 19 19 19 20
21 19 17 15 16 18 19 19 18 17 18 18 18 18 20 20 20 22 22 21 21 21 20 20 20 20 19 19 19 19 19 19 19 19 19 19 19 19 19 19 19 19 19 19 19 19 19 19 19
19 17 16 18 17 17 17 18 17 19 18 18 18 19 19 20 20 21 21 21 21 21 21 20 20 20 19 19 19 19 19 19 19 19 19 19 19 19 19 19 19 19 19 19 19 19 19 19 19
19 18 16 19 16 18 18 18 19 19 18 18 19 19 19 19 20 20 21 21 21 21 21 21 21 20 20 19 19 19 19 19 19 19 19 20 19 19 19 19 19 19 19 19 19 19 19 19 19
21 20 18 15 14 16 16 18 18 18 18 18 19 19 19 19 19 20 20 21 21 21 22 22 21 21 20 19 19 19 19 19 19 20 19 19 19 20 19 19 19 19 19 19 19 19 19 19 19
22 19 19 15 18 20 17 18 17 19 18 18 18 18 19 18 18 18 20 21 22 22 22 22 21 21 21 21 20 19 19 19 19 19 19 19 19 19 19 19 20 19 19 19 19 19 19 18 18
19 18 14 14 14 16 17 16 16 18 18 18 18 19 19 18 19 18 20 21 21 21 21 21 21 21 20 20 20 20 19 18 18 18 19 19 19 19 19 19 19 19 19 19 19 19 19 19 19
18 17 15 16 18 12 14 16 18 16 17 17 18 19 18 18 19 19 19 20 20 21 21 21 21 20 20 20 20 20 19 18 18 18 18 18 19 19 19 19 19 19 19 18 19 19 18 18 18

GFSSGP_850_temp_165.txt.gz
Temp
20 20 20 19 22 24 23 23 24 23 22 20 20 21 21 18 21 21 16 17 17 18 18 18 17 18 17 17 17 18 17 17 17 18 18 18 18 18 18 18 17 17 17 17 18 18 18 18 18
20 19 20 19 23 24 23 24 23 22 20 20 20 19 20 19 16 16 16 17 17 17 18 18 18 17 17 17 17 18 17 17 17 17 17 18 18 18 17 17 17 17 17 17 17 17 17 17 17
20 20 20 21 22 23 23 23 22 20 20 21 20 19 18 18 16 16 17 17 17 17 18 18 17 17 17 17 17 17 17 17 16 16 17 18 18 17 17 17 17 17 17 18 18 17 17 17 17
20 20 20 22 22 23 23 23 22 21 20 20 19 19 17 16 16 16 17 17 17 17 17 17 17 17 17 17 17 17 17 16 16 17 18 18 17 17 18 18 18 18 18 18 18 18 17 17 17
20 20 22 22 22 23 23 23 22 22 21 20 19 18 17 16 16 17 17 17 17 17 17 17 17 17 16 16 17 17 16 16 17 17 17 17 17 18 18 18 17 17 19 18 18 17 18 18 17
20 19 22 22 22 23 23 22 22 20 20 19 19 19 17 16 16 16 16 16 16 17 17 17 17 17 17 17 16 16 17 17 17 17 18 17 17 18 18 17 17 18 18 18 19 18 18 18 18
20 21 20 22 22 22 22 22 22 21 20 20 19 19 16 15 16 16 16 16 16 16 16 16 17 17 16 16 16 16 17 17 17 17 18 18 18 18 18 18 18 18 18 18 19 19 18 18 18
18 20 20 20 21 20 21 22 21 22 20 19 18 20 19 16 16 16 15 16 16 16 16 16 17 17 17 16 15 16 17 17 17 18 18 18 18 18 18 18 18 19 18 18 19 19 19 19 19
19 20 20 20 19 20 20 22 21 20 20 19 18 18 18 17 16 16 15 14 15 15 16 16 16 16 16 17 17 17 17 18 18 18 18 18 18 18 18 18 19 19 19 19 19 19 20 20 20
20 20 19 18 18 19 20 21 21 21 20 19 17 18 18 17 16 15 14 14 15 15 16 16 16 16 17 17 18 18 18 19 19 19 18 18 18 19 19 19 19 19 19 19 20 20 20 20 20
20 20 18 18 17 17 19 21 22 22 22 20 19 17 16 17 16 15 15 14 14 15 15 16 16 17 17 18 17 18 18 19 19 18 18 19 19 19 19 19 19 20 20 20 20 21 21 21 20
21 19 19 17 17 17 20 20 22 22 21 20 18 17 17 17 16 16 16 15 15 15 15 16 16 17 17 18 18 17 18 19 18 18 19 19 19 19 19 19 20 20 20 20 21 21 21 21 21
20 19 19 18 17 18 19 21 21 21 20 21 19 17 17 17 16 17 16 16 15 16 16 16 16 17 18 18 18 18 18 18 18 18 19 19 19 19 19 20 20 20 20 21 21 21 21 20 20
19 20 19 18 18 18 18 21 20 21 20 19 19 17 17 17 17 16 17 16 16 16 16 16 16 17 18 18 18 18 18 18 18 19 19 19 19 19 20 20 20 20 20 21 21 21 21 20 20
20 21 21 19 18 19 18 20 21 20 20 19 19 18 17 17 18 17 17 17 17 17 16 16 16 17 18 18 18 18 18 18 19 19 19 19 20 20 20 20 20 20 20 21 21 21 21 20 20
21 21 22 20 20 19 19 21 19 19 19 20 19 19 18 17 19 18 18 18 18 17 17 17 17 17 18 18 18 19 19 19 19 19 19 19 19 20 20 20 20 20 20 20 20 21 21 21 20
21 22 21 21 20 20 19 21 20 18 20 20 20 20 18 18 18 19 19 18 18 18 18 18 18 18 18 18 18 19 19 19 19 19 19 19 19 19 19 20 20 20 20 20 20 21 21 21 21
22 22 21 22 21 20 21 21 20 20 19 18 20 20 20 19 19 19 19 19 19 18 19 18 18 18 18 18 18 19 19 19 19 19 19 19 19 19 19 19 19 20 20 20 20 20 20 20 20
23 23 23 22 22 21 21 22 21 20 19 20 19 19 19 20 20 19 19 19 19 19 19 19 19 18 18 18 18 19 19 19 19 19 19 19 19 19 19 19 19 20 20 20 20 20 21 20 20
24 24 23 22 21 22 22 22 23 21 20 20 20 20 21 20 20 20 20 20 20 20 19 19 19 18 18 18 18 19 19 19 19 19 19 19 19 19 19 20 20 20 20 20 20 20 20 20 20
25 25 23 24 21 21 21 22 22 21 20 19 19 20 21 20 21 20 21 20 20 20 20 19 19 18 18 18 18 18 19 19 19 19 19 19 19 19 19 20 20 20 19 20 20 20 20 20 20
26 25 24 23 23 23 22 24 23 22 21 20 20 19 20 21 20 21 21 21 21 21 20 20 19 19 18 18 18 18 19 19 19 19 19 19 19 19 19 20 19 20 19 19 19 19 19 20 20
25 24 24 23 24 23 21 22 25 21 22 22 21 21 20 21 21 20 22 21 22 21 21 20 20 19 19 18 18 18 18 19 19 19 18 19 19 19 19 19 19 20 19 19 19 19 19 19 20
23 23 23 22 22 24 23 24 26 24 24 23 22 21 20 20 20 20 22 21 22 21 21 21 20 20 19 19 19 19 18 19 19 19 19 19 19 19 19 19 19 19 19 19 19 19 19 19 19
24 25 25 24 24 25 21 22 25 24 23 22 22 20 20 20 20 20 21 21 22 22 21 21 21 20 20 19 19 19 19 18 19 19 19 19 19 19 19 19 19 19 19 19 19 19 19 19 19
25 26 26 23 24 25 21 23 26 23 21 21 20 20 19 19 20 20 20 22 22 22 22 21 21 21 20 19 19 19 19 19 19 19 19 19 19 19 19 19 19 19 18 19 19 18 19 19 19
24 25 25 24 21 23 24 23 24 23 22 21 21 20 20 20 20 20 20 21 22 23 22 22 21 21 21 20 20 19 19 19 19 19 19 19 19 20 19 19 19 19 19 19 19 18 18 18 19
25 23 25 24 23 23 24 22 25 23 23 22 22 21 20 19 19 19 19 20 22 22 22 22 22 21 22 21 20 19 19 19 19 18 18 19 19 19 19 19 19 20 19 19 19 19 18 18 18
24 24 21 24 23 25 24 24 23 24 23 22 22 20 19 19 19 18 18 19 21 21 21 22 22 22 21 21 20 20 19 19 19 19 19 18 19 19 19 19 19 19 19 19 18 18 18 18 18
22 22 24 25 22 21 22 25 21 21 21 20 20 19 18 18 18 18 18 18 19 20 21 21 22 21 21 21 21 20 19 19 19 19 19 19 18 18 19 19 19 19 19 19 18 18 19 18 18

GFSSGP_850_temp_171.txt.gz
Temp
21 20 22 22 24 24 27 29 31 29 29 28 28 27 26 25 24 20 20 21 21 19 17 18 18 18 18 18 18 18 18 18 18 18 18 18 18 18 17 18 19 18 18 18 18 18 19 19 19
22 22 22 24 24 19 27 28 27 29 28 27 26 27 26 23 22 19 19 20 21 20 18 17 18 18 18 18 18 18 18 18 18 18 18 18 18 18 18 18 18 18 18 18 18 19 19 19 18
21 22 25 27 28 19 26 26 29 28 27 28 27 26 25 21 20 19 20 20 20 19 18 18 18 17 17 18 18 18 17 17 17 18 17 17 18 18 18 18 18 18 18 18 18 18 18 18 19
23 24 25 27 22 30 28 29 29 29 27 26 27 26 22 20 20 20 20 19 20 19 18 18 18 17 17 17 17 17 17 17 17 17 17 17 17 18 18 18 18 18 19 18 19 18 18 18 18
23 25 23 26 23 29 30 29 28 29 27 27 26 25 22 20 20 20 20 19 18 18 18 17 17 17 17 17 17 17 17 16 17 17 17 17 18 18 18 19 19 19 19 18 18 18 18 19 19
26 26 26 24 20 28 29 29 29 28 27 26 27 24 21 19 19 19 20 18 18 18 17 16 17 17 17 17 17 17 17 17 17 17 17 18 18 18 18 19 19 19 19 19 18 19 19 19 19
28 26 24 21 22 26 28 28 29 28 28 27 26 26 23 19 18 18 19 18 18 18 17 16 16 17 17 17 17 16 17 17 16 16 17 18 18 18 18 18 19 19 20 19 19 19 19 20 19
26 27 25 25 21 24 27 27 27 27 26 25 26 26 24 20 19 19 19 18 18 17 17 16 15 15 15 16 17 17 17 16 16 17 18 18 18 18 18 19 19 19 20 20 20 20 20 20 19
26 24 23 23 20 22 26 27 26 26 26 25 25 24 23 22 21 19 18 17 18 17 17 17 16 16 15 17 17 17 16 16 16 17 18 18 18 18 18 18 19 20 19 19 19 20 19 19 19
28 24 24 23 21 20 24 26 27 27 26 25 24 23 21 21 22 20 19 18 18 17 17 17 17 16 15 15 17 17 17 17 17 17 18 18 19 19 19 19 20 20 20 20 20 19 19 18 18
27 25 23 21 18 21 26 27 27 26 28 26 24 23 22 22 22 19 19 18 18 17 17 16 17 17 16 17 17 17 17 17 17 17 18 19 19 19 19 20 20 20 20 20 20 20 19 18 18
25 25 22 20 18 22 24 26 27 27 27 26 24 23 23 22 22 21 19 17 17 17 17 17 17 17 17 17 18 18 18 18 19 18 18 18 19 19 20 21 21 21 21 20 20 20 19 19 18
25 24 23 19 18 22 24 24 27 26 26 25 24 23 23 23 23 22 20 17 17 16 17 17 17 17 18 17 17 18 18 19 20 19 19 19 20 19 20 20 21 21 21 21 21 20 20 19 19
27 25 24 22 19 21 23 22 25 26 25 25 24 24 24 23 22 21 20 18 17 17 17 17 17 16 17 17 18 18 19 19 20 20 18 18 20 19 19 19 21 21 22 21 21 20 20 19 19
27 25 24 23 20 22 21 20 24 25 26 25 25 25 24 23 22 22 21 19 18 17 17 17 17 17 17 17 18 18 19 20 20 20 18 18 19 20 19 20 20 20 20 20 20 20 21 21 20
28 25 24 25 25 23 22 19 21 26 26 26 26 25 24 23 23 22 21 20 19 18 18 18 18 17 17 17 17 18 18 19 20 20 19 20 20 20 20 20 20 20 20 21 21 21 22 22 21
27 24 26 25 24 23 23 19 20 24 24 26 26 25 25 24 23 22 21 21 20 19 18 18 17 17 17 18 18 17 18 19 21 20 20 19 18 20 20 20 19 20 20 21 21 21 21 21 21
27 28 28 25 27 27 26 24 23 23 24 26 27 26 25 25 24 23 22 21 19 18 17 18 18 18 18 18 18 18 19 20 21 21 20 19 19 20 20 20 19 20 20 21 21 20 20 21 21
20 28 29 29 28 28 26 23 25 25 25 25 27 26 25 25 24 23 23 22 20 18 18 18 18 18 18 18 19 20 20 20 21 21 20 18 18 18 20 20 19 19 20 20 19 20 20 22 21
28 30 30 29 29 28 28 28 28 26 26 25 26 26 25 25 25 24 23 22 21 20 19 18 18 17 18 19 19 20 21 20 21 21 19 19 18 18 20 19 20 20 20 20 19 20 21 21 21
30 30 30 30 29 29 29 25 29 28 26 26 26 25 26 26 25 25 24 23 22 21 20 19 18 18 18 19 19 19 19 19 20 20 20 19 18 19 18 18 19 20 20 20 20 20 21 21 21
30 31 31 30 29 20 30 19 18 29 28 27 27 27 26 25 25 26 25 24 23 22 21 20 18 18 18 18 20 19 19 20 21 21 21 20 19 19 18 19 20 20 20 20 20 20 20 21 21
31 31 31 30 30 31 30 30 27 31 29 29 28 27 27 25 26 25 26 25 24 23 22 20 19 18 19 18 19 19 19 20 20 21 20 20 19 19 19 19 20 20 19 20 20 20 21 21 21
31 31 31 31 32 30 32 30 28 28 30 30 30 28 27 27 24 26 26 26 25 24 23 22 19 18 19 18 19 18 19 20 20 19 20 20 20 19 19 18 18 18 19 20 19 19 19 20 20
31 31 30 29 30 29 31 30 31 30 31 31 30 29 28 26 27 26 26 26 24 24 24 23 20 18 18 18 18 18 18 18 18 19 20 21 21 21 20 19 18 19 20 19 19 19 18 19 19
31 32 31 28 30 31 30 30 31 32 31 30 29 29 27 27 26 26 26 26 25 24 24 23 21 19 18 18 18 18 18 19 18 19 20 20 19 21 20 20 19 19 19 19 18 19 19 19 19
31 30 33 31 32 31 32 31 32 32 31 30 30 28 28 27 27 26 26 26 25 24 24 23 22 19 19 19 18 18 18 19 19 19 19 19 20 19 20 19 19 19 19 19 19 19 20 19 19
31 32 30 31 28 28 31 30 30 30 30 31 30 30 28 27 26 26 26 25 25 24 24 23 22 20 20 20 19 19 18 18 18 19 19 20 19 20 18 19 19 18 19 19 19 19 19 19 19
30 30 31 32 31 30 29 29 32 31 31 30 30 29 28 27 27 26 25 25 24 24 24 23 22 21 20 20 20 19 19 19 19 19 19 19 19 19 19 18 18 18 19 19 18 19 19 18 18
31 31 31 30 29 31 30 30 32 31 31 29 29 28 27 26 26 25 25 24 24 24 23 23 22 21 21 21 20 20 20 19 20 19 19 19 18 18 18 18 18 19 19 19 18 19 19 19 19

GFSSGP_850_temp_174.txt.gz
Temp
22 22 22 23 22 18 22 28 30 29 29 29 28 27 25 24 24 20 21 21 19 19 19 18 18 18 18 18 18 19 18 18 18 19 18 18 18 18 18 19 18 18 19 18 18 19 19 19 19
21 23 24 24 20 18 19 29 28 29 29 28 27 25 24 22 21 20 20 21 20 20 18 18 18 18 18 18 18 18 18 19 19 19 18 18 19 18 18 18 18 19 19 19 19 19 19 19 19
23 23 24 23 18 20 21 29 29 29 29 29 28 25 24 22 21 21 21 21 20 19 18 18 18 18 18 18 18 18 18 18 19 19 18 19 18 18 18 18 18 18 18 19 19 19 19 19 19
23 24 23 24 21 22 24 29 29 29 28 28 27 24 22 21 21 20 21 20 20 18 18 19 18 18 18 18 18 18 17 18 18 18 19 18 18 18 18 18 19 19 19 19 19 19 19 19 19
25 25 19 19 21 19 29 29 29 29 29 28 26 23 21 21 20 20 20 19 19 19 17 18 18 18 18 17 17 17 17 17 18 18 18 18 18 18 18 19 19 19 19 19 19 19 19 19 19
26 23 21 21 19 20 25 29 29 29 28 27 25 23 20 20 20 20 19 19 19 17 17 18 18 18 17 17 17 17 17 17 17 18 18 18 19 18 19 19 20 19 19 19 19 19 19 19 19
27 25 24 22 18 19 27 29 29 29 29 28 26 23 20 20 19 19 18 18 18 17 17 17 17 17 17 17 17 17 17 18 18 18 17 18 19 18 17 20 20 19 19 19 19 19 19 18 18
28 26 23 23 22 19 22 29 28 28 27 27 27 24 21 19 19 19 18 18 18 17 17 17 17 17 17 17 17 17 17 18 17 19 18 19 19 19 19 19 19 20 20 19 19 19 19 18 18
28 19 22 23 22 19 22 27 27 27 27 27 25 24 21 20 20 19 18 18 18 17 17 17 17 16 16 17 17 17 17 17 19 19 19 19 19 19 19 19 18 20 20 20 20 19 19 18 18
26 23 24 24 20 19 21 24 28 28 27 26 25 24 22 20 20 19 19 18 17 18 17 17 16 16 16 17 17 17 17 18 18 19 18 18 17 18 19 19 20 20 20 20 19 19 19 18 18
27 25 24 22 21 21 21 24 28 27 27 26 25 24 23 21 20 20 19 19 18 18 17 17 17 16 16 17 17 17 17 18 18 19 18 18 18 19 20 20 20 20 19 19 17 18 18 17 18
25 26 24 23 20 18 17 22 28 28 28 26 25 24 24 24 21 21 20 19 18 17 17 17 17 17 17 17 17 18 18 18 18 19 19 18 19 19 19 20 20 18 20 17 17 19 19 18 19
22 25 24 21 20 19 18 22 24 27 27 26 25 25 24 25 22 21 19 19 18 17 17 17 17 17 17 18 18 18 18 17 18 19 20 19 19 20 19 20 19 19 18 17 20 19 20 19 19
26 25 24 22 21 22 22 19 22 27 26 26 25 25 25 24 23 20 19 18 17 17 17 17 17 17 17 18 18 18 17 18 19 20 19 19 20 20 20 21 20 21 20 20 21 21 21 21 20
27 26 25 24 23 23 22 20 19 23 27 26 26 26 25 24 23 20 19 18 18 17 17 17 17 17 18 18 18 17 19 19 20 20 20 20 19 19 20 20 21 21 21 21 21 21 20 21 21
28 26 24 25 24 23 24 19 20 24 22 27 27 26 25 24 24 22 20 19 18 18 17 17 17 18 18 18 18 18 19 20 20 20 20 20 19 20 20 20 20 21 21 21 21 21 21 22 21
21 21 24 25 26 24 25 21 20 21 22 26 26 26 25 25 24 22 20 19 18 18 18 18 18 18 17 17 18 18 20 20 20 21 20 20 20 20 20 20 20 21 21 21 21 20 21 22 22
16 20 22 24 26 26 25 23 22 21 24 25 26 26 25 25 24 23 22 20 19 18 18 18 18 18 17 18 19 19 20 20 20 21 20 20 20 20 20 20 20 21 20 21 20 21 22 21 21
20 22 23 26 26 25 24 25 24 23 25 26 26 25 26 25 24 23 23 20 19 19 18 18 18 18 19 19 19 19 20 21 21 21 20 20 19 19 20 20 20 21 20 20 20 21 20 21 21
25 24 28 30 30 25 21 25 25 25 25 26 27 26 24 24 24 24 23 21 19 19 18 18 18 19 20 20 19 19 20 20 20 20 20 20 19 19 20 20 20 20 20 20 21 20 20 21 20
27 27 29 30 30 29 22 21 17 19 23 26 25 26 24 24 24 24 23 22 20 19 18 18 18 19 20 19 19 20 19 20 20 19 20 20 19 19 19 19 19 20 20 20 20 20 19 20 20
31 32 32 31 30 26 23 21 18 21 21 27 26 26 24 24 24 22 24 23 22 20 19 19 18 19 20 19 19 20 19 19 18 19 20 20 19 19 19 19 20 20 19 20 19 20 20 20 21
31 32 31 32 30 24 25 24 23 18 21 23 28 26 26 27 24 23 24 24 23 22 20 20 19 19 19 20 19 19 20 19 20 20 21 19 20 19 19 19 20 20 20 19 19 19 20 20 19
33 31 32 32 32 29 29 20 25 23 21 17 28 29 27 27 26 24 24 24 24 23 22 21 20 20 19 19 20 19 20 20 20 20 20 20 20 20 19 19 19 19 20 20 19 20 20 20 21
31 31 29 29 29 29 32 30 27 29 27 26 29 29 29 28 25 26 25 24 23 24 23 22 21 20 20 19 19 20 19 20 20 20 20 20 20 20 20 20 20 20 19 18 19 20 20 20 20
31 31 30 26 25 25 26 27 28 31 31 31 30 30 29 28 27 26 27 25 24 22 23 23 22 21 21 20 19 19 20 19 20 20 19 20 21 20 19 20 20 19 19 20 19 20 19 20 19
32 31 33 31 32 32 31 31 32 32 31 31 30 29 29 28 27 27 26 26 25 25 24 22 22 22 22 21 20 19 19 19 19 19 19 20 20 20 19 19 20 19 19 20 19 19 19 19 20
31 33 30 31 29 29 30 30 29 30 31 31 31 30 29 28 27 27 26 26 26 24 23 23 23 23 22 21 20 19 19 20 19 19 19 19 19 19 20 19 19 19 19 19 19 19 19 19 20
31 31 31 32 31 29 29 29 31 31 31 31 31 30 29 29 28 27 27 26 26 25 24 23 23 22 22 21 20 19 19 19 20 19 18 19 18 18 18 19 19 19 19 19 19 20 19 19 19
33 32 32 30 29 30 30 27 32 31 32 31 31 30 29 28 27 27 26 26 25 25 24 22 22 22 22 21 20 20 20 19 19 19 19 19 19 19 19 19 19 20 19 19 19 19 19 18 19